[[{"header":{"parameterUnit":"m.s-1","parameterCategory":1,"la1":30.2991,"la2":30.254,"lo1":-89.0895,"lo2":-89.0444,"dy":0.0017,"dx":0.0017,"nx":28,"ny":28,"refTime":"2024-10-20T21:00:00:Z","depth":0,"parameterNumber":2,"parameterNumberName":"U-component_of_WINDS"},"data":[0,0,0,0,0,0,0,0,0,0,0,0,0,0,0,0,0,0,0,0,0,0,0,0,0,0,0,0,0,0,0,0,0,0,0,0,0,0,0,0,0,0,0,0,0,0,0,0,0,0,0,0,0,0,0,0,0,0,-0.0319,-0.0318,0,-0.0237,-0.0236,-0.0235,-0.0157,-0.0156,-0.0155,-0.0154,-0.0072,-0.0071,-0.007,0,0,0,0,0,0,0,0,0,0,0,0,0,-0.041,-0.0409,-0.0319,-0.0318,-0.0317,-0.0237,-0.0236,-0.0235,-0.0157,-0.0156,-0.0155,-0.0154,-0.0072,-0.0071,-0.0069,0,0,0,0,0,0,0,0,0,0,0,0,0,-0.0354,-0.0409,-0.0319,-0.0269,-0.0263,-0.0238,-0.0236,-0.0235,-0.0158,-0.0156,-0.0155,-0.0153,-0.0073,-0.0071,-0.0069,-0.0087,0,0,-0.0063,-0.0063,0,0,0,0,0,0,0,0,-0.0357,-0.0351,-0.0277,-0.0272,-0.0266,-0.0206,-0.0238,-0.0185,-0.0158,-0.0198,-0.0154,-0.0153,-0.0118,-0.0112,-0.01,-0.0083,-0.008,-0.0063,-0.0062,-0.0061,-0.0061,0,0,0,0,0,0,0,-0.0361,-0.0354,-0.0287,-0.0276,-0.0269,-0.0251,-0.0241,-0.0228,-0.0167,-0.0194,-0.0188,-0.018,-0.0115,-0.0102,-0.0098,-0.0079,-0.0063,-0.0062,-0.006,-0.006,-0.0075,-0.0077,0,0,0,0,0,0,-0.0373,-0.0358,-0.0289,-0.0284,-0.0309,-0.025,-0.0239,-0.0227,-0.0167,-0.0157,-0.0181,-0.0176,-0.0106,-0.01,-0.0094,-0.0114,-0.0061,-0.0059,-0.0058,-0.0074,-0.0075,-0.0077,0,0,0,0,0,0,-0.0375,-0.0367,-0.0293,-0.0319,-0.0308,-0.025,-0.0237,-0.0226,-0.0213,-0.0157,-0.0146,-0.018,-0.0105,-0.0097,-0.009,-0.011,-0.0059,-0.0057,-0.0072,-0.0074,-0.0076,-0.0152,0,0,0,0,0,0,-0.0378,-0.0369,-0.0374,-0.032,-0.0307,-0.029,-0.0238,-0.0225,-0.021,-0.0203,-0.0153,-0.0143,-0.0103,-0.0093,-0.0088,-0.0106,-0.0055,-0.007,-0.0073,-0.0076,-0.0148,-0.0157,-0.0164,0,0,0,0,0,-0.0381,-0.0399,-0.0375,-0.0367,-0.0313,-0.0291,-0.0284,-0.0237,-0.0212,-0.0218,-0.0182,-0.0145,-0.0108,-0.0093,-0.0087,-0.0105,-0.0068,-0.0072,-0.0075,-0.0144,-0.0155,-0.0164,0,0,0,0,0,0,-0.0458,-0.0391,-0.0364,-0.0364,-0.0334,-0.0278,-0.0284,-0.025,-0.0226,-0.0221,-0.0164,-0.0153,-0.0153,-0.0127,-0.0112,-0.012,-0.0083,-0.0085,-0.0137,-0.0147,-0.0156,-0.0163,-0.0054,0,0,0,0,0,-0.0474,-0.0461,-0.0403,-0.0409,-0.0395,-0.0342,-0.0331,-0.0297,-0.0264,-0.0251,-0.0214,-0.0183,-0.0165,-0.0154,-0.0134,-0.0142,-0.0132,-0.0152,-0.016,-0.0167,-0.0171,-0.0176,-0.0185,-0.0089,-0.0089,-0.0088,0,0,-0.0509,-0.0471,-0.0466,-0.0424,-0.0396,-0.0385,-0.0332,-0.0322,-0.0313,-0.0249,-0.0241,-0.0213,-0.0175,-0.0177,-0.0175,-0.0156,-0.0195,-0.0172,-0.0178,-0.0178,-0.0181,-0.019,-0.0198,-0.0091,-0.009,-0.009,0,0,-0.0567,-0.0536,-0.0538,-0.0512,-0.0471,-0.0436,-0.0436,-0.0385,-0.0365,-0.0355,-0.0308,-0.0296,-0.0265,-0.0241,-0.0225,-0.0274,-0.024,-0.0269,-0.0314,-0.032,-0.0328,-0.0334,-0.0355,-0.0362,-0.0272,-0.0272,-0.0272,0,-0.0616,-0.0596,-0.0544,-0.0537,-0.0521,-0.0462,-0.0465,-0.0442,-0.0397,-0.0387,-0.0365,-0.0326,-0.0296,-0.0293,-0.0305,-0.0292,-0.0293,-0.0276,-0.033,-0.0336,-0.0342,-0.0361,-0.0368,-0.0276,-0.0276,-0.0275,-0.0275,0,-0.066,-0.0647,-0.0654,-0.0612,-0.0596,-0.0594,-0.0543,-0.0533,-0.0501,-0.0468,-0.0461,-0.0422,-0.0395,-0.039,-0.0359,-0.0383,-0.0372,-0.0341,-0.0303,-0.0356,-0.0373,-0.038,-0.0282,-0.0281,-0.028,-0.0279,0,0,-0.0765,-0.0694,-0.0698,-0.068,-0.063,-0.062,-0.0615,-0.0588,-0.0582,-0.0552,-0.0549,-0.0524,-0.0496,-0.0477,-0.0442,-0.0446,-0.0491,-0.0414,-0.0413,-0.0433,-0.0519,-0.0545,-0.0554,-0.0467,-0.0468,-0.0469,-0.0523,0,-0.0817,-0.0807,-0.076,-0.0763,-0.0752,-0.0696,-0.0692,-0.0662,-0.0632,-0.0618,-0.0584,-0.0569,-0.053,-0.0519,-0.0521,-0.0486,-0.0508,-0.0481,-0.0466,-0.0466,-0.048,-0.0562,-0.059,-0.0643,-0.0529,-0.053,-0.0531,0,-0.0877,-0.0852,-0.0855,-0.0807,-0.0801,-0.0798,-0.0771,-0.0757,-0.0723,-0.07,-0.068,-0.064,-0.0634,-0.0597,-0.0589,-0.0571,-0.0561,-0.0543,-0.0544,-0.0544,-0.0504,-0.0567,-0.0658,-0.0668,-0.054,-0.0539,-0.0539,0,-0.0958,-0.0924,-0.0922,-0.0907,-0.0851,-0.0851,-0.0827,-0.0791,-0.0778,-0.0753,-0.0744,-0.0719,-0.0706,-0.0688,-0.0644,-0.062,-0.0642,-0.06,-0.0625,-0.0626,-0.0635,-0.0635,-0.0729,-0.0623,-0.0623,-0.0623,-0.0623,0,-0.1023,-0.1028,-0.0958,-0.0957,-0.0961,-0.0907,-0.0913,-0.0884,-0.0852,-0.0845,-0.0793,-0.0789,-0.0728,-0.0717,-0.0681,-0.0682,-0.0675,-0.0659,-0.065,-0.0665,-0.0668,-0.0661,-0.0657,-0.0625,-0.0625,-0.0624,-0.0624,0,-0.1115,-0.1068,-0.1063,-0.1009,-0.0996,-0.1002,-0.0957,-0.0954,-0.092,-0.0912,-0.0907,-0.0854,-0.0838,-0.0791,-0.0762,-0.0739,-0.0751,-0.0731,-0.0763,-0.0758,-0.0787,-0.0786,-0.0882,-0.0893,-0.0778,-0.0779,-0.078,0,-0.1162,-0.1164,-0.1111,-0.1103,-0.1082,-0.1068,-0.1055,-0.1002,-0.099,-0.0951,-0.0954,-0.0933,-0.0915,-0.0892,-0.0851,-0.083,-0.0812,-0.0847,-0.0808,-0.0825,-0.0816,-0.0818,-0.082,-0.0856,-0.0858,-0.0859,-0.086,0,-0.125,-0.1227,-0.1209,-0.1184,-0.117,-0.1147,-0.1122,-0.1118,-0.1058,-0.1048,-0.1031,-0.1017,-0.0988,-0.0969,-0.0941,-0.0917,-0.088,-0.0872,-0.0877,-0.0895,-0.0914,-0.0907,-0.0789,-0.0871,-0.087,-0.0869,-0.0868,-0.0868,-0.1323,-0.1323,-0.1286,-0.1269,-0.1244,-0.1222,-0.1218,-0.1183,-0.1168,-0.1141,-0.1109,-0.1097,-0.1062,-0.1021,-0.1,-0.099,-0.097,-0.0977,-0.0979,-0.0982,-0.0991,-0.0913,-0.0984,-0.0984,-0.0984,-0.0983,-0.0983,0,-0.1411,-0.1385,-0.1369,-0.1336,-0.1323,-0.1286,-0.1257,-0.1249,-0.1238,-0.1209,-0.1191,-0.1173,-0.1154,-0.1112,-0.109,-0.109,-0.1073,-0.1087,-0.1088,-0.1084,-0.1009,-0.1008,-0.1102,-0.1102,-0.1102,-0.1102,-0.1102,-0.1102,-0.1456,-0.1456,-0.1429,-0.1416,-0.1389,-0.1376,-0.1363,-0.1342,-0.1319,-0.1301,-0.1285,-0.1257,-0.1224,-0.1199,-0.1181,-0.1169,-0.1165,-0.1186,-0.1169,-0.11,-0.1089,-0.1078,-0.1077,-0.1184,-0.1184,-0.1245,-0.1246,-0.1246]},{"header":{"parameterUnit":"m.s-1","parameterCategory":1,"la1":30.2991,"la2":30.254,"lo1":-89.0895,"lo2":-89.0444,"dy":0.0017,"dx":0.0017,"nx":28,"ny":28,"refTime":"2024-10-20T21:00:00:Z","depth":0,"parameterNumber":3,"parameterNumberName":"V-component_of_WINDS"},"data":[0,0,0,0,0,0,0,0,0,0,0,0,0,0,0,0,0,0,0,0,0,0,0,0,0,0,0,0,0,0,0,0,0,0,0,0,0,0,0,0,0,0,0,0,0,0,0,0,0,0,0,0,0,0,0,0,0,0,1.1924,1.1923,0,1.1853,1.1852,1.1851,1.1814,1.1814,1.1814,1.1814,1.1736,1.1734,1.1732,0,0,0,0,0,0,0,0,0,0,0,0,0,1.2022,1.2021,1.1924,1.1923,1.1922,1.1853,1.1852,1.1851,1.1814,1.1814,1.1814,1.1813,1.1736,1.1734,1.1731,0,0,0,0,0,0,0,0,0,0,0,0,0,1.1968,1.202,1.1924,1.1895,1.1892,1.1853,1.1852,1.185,1.1814,1.1814,1.1814,1.1813,1.1737,1.1734,1.1731,1.1714,0,0,1.1722,1.172,0,0,0,0,0,0,0,0,1.1971,1.1964,1.19,1.1897,1.1893,1.1842,1.1858,1.1804,1.1814,1.1843,1.1813,1.1813,1.1771,1.1765,1.1752,1.171,1.1707,1.1722,1.172,1.1718,1.1717,0,0,0,0,0,0,0,1.1975,1.1967,1.1895,1.1899,1.1895,1.1884,1.1876,1.1848,1.1808,1.1841,1.1838,1.183,1.1769,1.1755,1.1749,1.1705,1.1722,1.1719,1.1717,1.1716,1.1644,1.1644,0,0,0,0,0,0,1.1984,1.1971,1.1898,1.1893,1.1933,1.1882,1.1874,1.1858,1.1808,1.1801,1.183,1.1829,1.176,1.1753,1.1747,1.1722,1.1718,1.1716,1.1714,1.1644,1.1644,1.1644,0,0,0,0,0,0,1.1986,1.1978,1.1901,1.1931,1.1921,1.1881,1.1864,1.1857,1.1843,1.1801,1.1793,1.1823,1.1759,1.1751,1.1722,1.1719,1.1714,1.1711,1.1644,1.1644,1.1644,1.1673,0,0,0,0,0,0,1.1989,1.1979,1.1973,1.1931,1.1919,1.1879,1.1864,1.1856,1.1838,1.1836,1.1792,1.1785,1.1759,1.1727,1.1719,1.1714,1.1709,1.1644,1.1644,1.1644,1.1672,1.1674,1.1675,0,0,0,0,0,1.1993,1.1983,1.1973,1.1965,1.1911,1.1879,1.1872,1.1844,1.1838,1.1831,1.1804,1.1786,1.172,1.1724,1.1715,1.1709,1.1644,1.1644,1.1644,1.1671,1.1673,1.1675,0,0,0,0,0,0,1.2024,1.1977,1.1966,1.1943,1.1915,1.1873,1.1863,1.1847,1.1819,1.1818,1.1782,1.1773,1.1747,1.1725,1.173,1.1689,1.168,1.1678,1.1704,1.1706,1.1707,1.1713,1.1706,0,0,0,0,0,1.2029,1.2008,1.1968,1.1951,1.1938,1.1903,1.1888,1.1869,1.1838,1.1826,1.1796,1.1766,1.1738,1.1721,1.1693,1.1669,1.1658,1.166,1.1662,1.1663,1.1662,1.1646,1.1646,1.1643,1.1643,1.1643,0,0,1.2038,1.2009,1.1998,1.1957,1.1933,1.1911,1.1894,1.1871,1.1853,1.1822,1.1793,1.177,1.1734,1.1707,1.1694,1.1688,1.166,1.1663,1.1665,1.1662,1.1645,1.1646,1.1646,1.1643,1.1643,1.1643,0,0,1.2042,1.2019,1.2002,1.1979,1.1945,1.1921,1.1917,1.1877,1.1861,1.1832,1.1808,1.1786,1.1739,1.1714,1.1695,1.1689,1.1671,1.1681,1.1689,1.1674,1.1674,1.1674,1.1671,1.167,1.1679,1.1679,1.1679,0,1.2056,1.2024,1.1995,1.1974,1.1956,1.1928,1.191,1.1888,1.1845,1.1833,1.1827,1.1768,1.1742,1.1708,1.1706,1.1692,1.1685,1.1685,1.1676,1.1676,1.1676,1.1672,1.1671,1.1681,1.1681,1.168,1.168,0,1.2043,1.202,1.201,1.1971,1.1952,1.1932,1.1899,1.1883,1.1865,1.1842,1.1811,1.1779,1.1744,1.1734,1.1716,1.1697,1.1695,1.1684,1.1674,1.1678,1.1674,1.1672,1.1683,1.1682,1.1682,1.1681,0,0,1.2065,1.2011,1.2007,1.1989,1.1948,1.1929,1.1907,1.1874,1.186,1.1831,1.1811,1.1772,1.1761,1.174,1.1718,1.1705,1.1701,1.1695,1.1694,1.1697,1.1677,1.1685,1.1684,1.1689,1.1689,1.1689,1.168,0,1.2063,1.2024,1.1998,1.1969,1.1947,1.1919,1.19,1.1872,1.1849,1.1826,1.18,1.1772,1.1761,1.1747,1.1733,1.1705,1.1696,1.1705,1.1668,1.1667,1.1678,1.1682,1.1691,1.1685,1.1678,1.1678,1.1678,0,1.2055,1.2028,1.1998,1.1959,1.1948,1.1932,1.1899,1.1877,1.1844,1.1828,1.1804,1.1783,1.1756,1.175,1.1712,1.1718,1.1701,1.1685,1.1684,1.1679,1.1672,1.1677,1.1682,1.1681,1.1675,1.1675,1.1675,0,1.2073,1.2029,1.2005,1.199,1.1944,1.1933,1.1913,1.188,1.1862,1.1832,1.1819,1.1787,1.1769,1.1743,1.1712,1.1711,1.1677,1.1668,1.1662,1.1663,1.1656,1.1657,1.1658,1.1646,1.1646,1.1646,1.1646,0,1.2073,1.2055,1.2013,1.1998,1.1976,1.1945,1.1924,1.1901,1.1872,1.1851,1.1825,1.1805,1.1766,1.1741,1.1716,1.1688,1.168,1.1665,1.1659,1.1668,1.1669,1.1656,1.1655,1.1646,1.1646,1.1646,1.1646,0,1.2089,1.2061,1.2032,1.1991,1.1981,1.1966,1.193,1.1914,1.189,1.1863,1.1855,1.1816,1.1785,1.1753,1.171,1.1693,1.1666,1.1657,1.1678,1.1674,1.1669,1.167,1.1661,1.1658,1.165,1.165,1.165,0,1.2091,1.2077,1.2035,1.2019,1.2,1.1976,1.1957,1.1926,1.1907,1.1868,1.1855,1.1823,1.1795,1.1746,1.1713,1.168,1.167,1.1669,1.1665,1.1674,1.1669,1.167,1.1668,1.1671,1.1671,1.1671,1.1671,0,1.2097,1.2083,1.2058,1.2028,1.2007,1.1981,1.1954,1.1943,1.1905,1.1885,1.1854,1.1833,1.179,1.1757,1.172,1.1697,1.1677,1.1673,1.167,1.1678,1.169,1.1683,1.1681,1.1673,1.1673,1.1673,1.1673,1.1673,1.2105,1.2091,1.2059,1.2031,1.2008,1.1984,1.1966,1.194,1.1914,1.1878,1.186,1.1829,1.1794,1.1743,1.172,1.1694,1.1688,1.1684,1.1682,1.1681,1.1683,1.1695,1.1687,1.1687,1.1687,1.1687,1.1687,0,1.2108,1.2087,1.2062,1.2026,1.2004,1.1989,1.1958,1.194,1.1914,1.1884,1.1858,1.1821,1.1789,1.1754,1.172,1.1705,1.1695,1.1697,1.1697,1.1692,1.1691,1.1697,1.1706,1.1706,1.1706,1.1706,1.1706,1.1706,1.2108,1.2082,1.2065,1.2027,1.2005,1.1975,1.1959,1.1935,1.1912,1.1873,1.1847,1.1825,1.1792,1.1755,1.1724,1.1714,1.1702,1.1707,1.1694,1.1694,1.1692,1.1691,1.1696,1.1705,1.1705,1.1698,1.1698,1.1698]}]]